{"data":{"norad_id":57615,"epoch":"2026-05-24T23:19:44.262048Z","epoch_age_seconds":70706,"freshness":"FRESH","line1":"1 57615U 23119P   26144.97204007  .00000842  00000+0  40113-4 0  9992","line2":"2 57615  43.0026  10.6820 0001456 265.6013  94.4673 15.27578119154758","mean_motion":15.27578119,"eccentricity":0.0001456,"inclination_deg":43.0026,"raan_deg":10.682,"arg_perigee_deg":265.6013,"mean_anomaly_deg":94.4673,"bstar":4.0113e-5,"rev_number":15475,"period_min":94.266864790042,"perigee_km":482.05573892046,"apogee_km":484.05371795178,"semimajor_km":6861.1917284361,"source":"CELESTRAK","updated_at":"2026-05-25T13:38:18.358814Z"}}